Dewpoint
71 69 69 68 68 67 66 66 66 66 70 71 70 69 68 69 68 70 71 76 76 77 76 76 76 76 75 75 75 75 75 74 74 74 74 73 73 73 72 72 72 73 73
72 69 70 69 68 68 67 67 67 68 71 70 69 69 69 69 71 70 71 73 76 76 76 75 75 75 75 74 74 75 74 74 74 74 74 74 73 73 73 73 72 72 72
73 73 69 68 68 69 69 67 68 70 70 69 70 69 70 72 73 71 68 69 72 75 75 75 75 75 75 74 74 74 74 74 73 73 73 73 73 73 73 73 73 73 72
74 72 69 69 70 69 66 65 69 69 70 69 69 70 72 72 71 70 69 68 68 68 72 74 75 74 73 74 73 73 73 73 72 72 72 72 72 72 72 72 73 73 73
71 71 70 70 71 68 68 66 68 74 69 69 68 70 72 71 70 68 70 70 69 68 68 72 73 73 73 73 72 72 71 71 71 71 71 70 71 71 71 71 71 72 72
72 72 70 73 70 69 68 68 71 73 73 68 67 71 71 72 70 72 68 67 68 68 68 69 69 68 70 71 71 71 70 69 69 68 69 69 69 69 70 70 70 70 71
72 73 70 71 71 70 72 71 68 72 74 72 70 70 73 70 68 68 67 66 66 66 64 63 62 62 64 69 69 69 68 68 68 68 68 67 67 68 68 68 70 70 70
72 71 74 71 73 69 73 72 71 75 73 73 73 71 71 72 71 67 66 66 63 62 61 61 61 62 62 62 67 67 67 66 66 65 65 65 65 65 66 68 68 68 69
71 71 71 71 71 70 66 71 70 72 74 74 72 69 67 69 69 69 66 63 62 61 60 60 60 62 62 61 62 63 64 65 63 63 63 63 63 63 64 64 66 67 68
70 69 70 70 71 68 70 68 66 72 76 72 71 70 72 71 70 66 66 63 62 61 60 57 55 56 58 58 62 64 64 65 62 62 62 62 61 61 61 62 62 63 64
70 69 71 71 71 69 70 71 69 72 76 75 70 69 71 68 69 64 64 62 61 61 60 57 56 54 55 55 58 62 62 62 62 61 60 60 60 60 59 59 60 60 62
68 71 71 72 73 70 70 69 70 73 76 75 71 70 68 64 64 64 63 64 61 61 59 57 56 54 55 57 60 62 62 61 61 61 61 58 57 58 58 58 58 59 59
64 69 72 71 69 72 70 71 73 74 75 75 73 68 68 66 66 67 65 65 64 61 61 58 57 56 53 55 57 59 61 61 61 63 62 61 57 57 56 55 57 59 60
67 70 71 72 71 71 71 73 70 73 74 73 71 71 66 67 66 66 62 66 63 65 66 60 57 57 55 54 57 59 57 61 61 62 62 61 60 56 56 55 55 57 58
68 71 71 73 73 73 74 74 75 76 76 72 70 69 67 68 67 66 63 61 67 64 64 62 59 59 56 55 56 54 55 61 60 60 62 61 60 57 55 55 54 55 55
72 71 73 73 73 73 74 75 76 74 74 70 65 70 69 67 66 66 64 61 62 63 61 62 63 59 58 55 56 55 55 59 59 60 60 61 59 57 55 54 54 54 55
73 73 74 74 74 74 75 76 74 73 72 70 69 68 69 71 65 64 62 61 60 60 61 61 63 62 61 59 57 56 55 53 54 59 59 59 59 57 55 54 53 53 53
72 73 75 75 74 75 75 74 73 71 70 68 66 68 66 65 68 68 61 65 63 66 60 64 64 64 62 62 61 61 55 52 53 58 60 59 57 56 55 54 54 53 54
74 72 75 74 74 74 74 73 72 70 68 66 66 66 65 66 65 62 59 60 63 62 64 60 60 59 61 61 62 62 61 61 56 58 59 58 57 55 55 55 55 54 54
74 74 74 73 73 73 73 71 70 69 67 64 64 64 64 63 64 65 63 65 64 62 60 55 54 56 57 62 60 57 59 60 56 53 58 58 57 56 54 55 53 52 55
75 75 74 73 73 71 69 70 69 67 65 63 63 63 62 62 60 64 62 65 66 56 51 50 51 52 53 55 57 55 54 55 60 55 55 54 53 53 52 55 53 52 50
72 73 73 73 71 67 66 67 67 64 63 62 61 61 63 62 61 60 62 63 64 61 58 50 50 52 59 56 54 51 52 52 50 54 55 50 50 48 50 51 56 55 54
74 73 74 72 71 68 65 64 64 61 61 60 60 60 55 56 63 62 60 60 59 59 61 62 60 58 60 56 56 58 57 55 54 54 55 47 48 45 50 51 55 55 54
73 74 73 72 71 68 63 63 63 62 59 59 58 57 55 60 62 62 61 60 59 58 57 53 59 58 55 58 59 58 59 60 56 51 53 43 47 49 52 52 56 56 55
71 71 70 71 70 66 62 61 62 58 56 57 57 56 56 56 56 58 60 59 58 55 54 57 57 57 57 56 55 50 50 47 44 44 49 44 46 48 48 49 51 56 55
71 69 73 70 69 70 61 59 60 54 54 52 57 59 59 58 53 54 56 57 55 52 48 52 52 53 55 53 54 59 52 44 43 42 49 44 45 46 44 46 47 50 50
Lifted_Index
-2 -2 -2 -2 -2 -2 -2 -1 -1 -2 -3 -4 -4 -3 -3 -3 -3 -3 -3 -3 -3 -4 -4 -4 -4 -4 -4 -4 -4 -4 -4 -4 -4 -3 -3 -3 -3 -3 -2 -2 -2 -2 -2
-2 -2 -2 -2 -2 -2 -2 -1 -2 -2 -4 -4 -3 -3 -3 -3 -3 -3 -2 -2 -3 -3 -3 -3 -3 -3 -3 -3 -3 -3 -3 -3 -3 -3 -3 -3 -3 -2 -2 -2 -2 -2 -2
-3 -2 -2 -2 -2 -2 -1 -1 -2 -3 -4 -4 -3 -3 -3 -3 -3 -2 -2 -2 -2 -2 -2 -2 -2 -3 -2 -2 -3 -3 -3 -2 -2 -2 -2 -2 -2 -2 -2 -2 -2 -2 -2
-3 -3 -2 -2 -2 -2 -1 -1 -2 -4 -4 -3 -3 -3 -3 -3 -2 -1 -1 -1 -1 -1 -1 -1 -1 -1 -1 -1 -2 -2 -2 -1 -1 -1 -1 -1 -1 -1 -1 -2 -2 -2 -2
-3 -3 -2 -3 -2 -2 -1 -2 -3 -4 -4 -3 -3 -3 -2 -2 -1 -1 -0 0 0 0 0 0 0 0 0 -0 -0 -0 -0 -0 0 0 0 0 0 0 -0 -0 -1 -1 -1
-3 -3 -3 -3 -3 -2 -2 -2 -3 -3 -3 -3 -2 -2 -2 -1 -1 -0 0 1 1 1 2 2 2 2 2 2 1 1 1 1 2 2 2 2 2 2 2 1 1 0 -0
-2 -3 -3 -3 -3 -3 -2 -2 -2 -3 -3 -3 -2 -2 -1 -1 -0 0 1 2 2 3 4 4 4 4 4 3 3 3 3 3 3 3 4 4 4 3 3 3 2 1 1
-2 -2 -2 -2 -2 -2 -2 -2 -2 -3 -3 -3 -2 -2 -1 -1 0 1 2 3 4 5 5 6 6 6 5 5 5 5 5 5 5 5 5 6 5 5 5 4 3 3 2
-2 -2 -2 -2 -2 -2 -2 -2 -2 -3 -4 -3 -2 -2 -1 -1 -0 1 2 3 5 5 6 6 7 7 7 6 6 6 6 6 7 7 7 7 7 7 6 6 5 4 4
-1 -1 -1 -1 -1 -1 -1 -1 -1 -3 -4 -3 -2 -2 -1 -1 -0 1 2 4 5 5 6 7 7 8 8 8 8 7 7 7 8 8 8 8 8 8 8 8 7 7 6
-1 -1 -1 -2 -2 -1 -1 -1 -1 -3 -4 -3 -2 -1 -1 -1 -0 1 2 3 4 5 6 7 8 8 9 9 8 8 8 8 8 9 9 9 10 10 10 10 9 9 8
-1 -1 -1 -2 -2 -1 -1 -1 -2 -3 -4 -3 -2 -1 -0 0 0 1 1 2 4 5 6 6 7 8 9 9 9 9 8 9 9 9 10 10 11 11 11 11 11 10 10
-1 -2 -2 -2 -2 -2 -1 -2 -3 -4 -4 -3 -1 -0 0 0 1 1 1 2 3 4 5 6 7 8 9 9 10 10 9 9 9 9 9 10 11 12 12 12 12 11 11
-2 -2 -2 -2 -2 -2 -2 -3 -3 -4 -4 -2 -1 0 1 1 1 1 2 2 2 2 3 5 6 7 8 9 10 10 10 9 9 9 9 10 11 12 13 13 13 12 12
-3 -3 -3 -3 -3 -3 -3 -4 -4 -4 -3 -2 -0 1 1 1 1 2 2 2 2 2 2 4 5 6 8 9 10 10 10 10 10 10 10 10 11 12 13 13 13 13 13
-3 -3 -3 -4 -4 -4 -4 -4 -4 -4 -3 -1 1 1 1 1 1 2 3 3 3 2 2 3 4 6 7 9 9 10 10 10 10 10 10 10 11 12 13 13 13 13 13
-3 -3 -4 -4 -4 -4 -4 -4 -4 -3 -1 1 2 2 2 2 2 3 3 4 3 3 3 3 4 5 6 7 8 9 9 10 10 10 10 11 11 12 13 13 14 14 14
-3 -4 -4 -4 -4 -4 -4 -4 -3 -2 0 2 3 3 3 3 3 4 4 4 4 3 3 3 3 4 5 6 7 7 8 8 9 10 10 11 12 12 13 13 14 15 15
-3 -4 -4 -4 -4 -4 -4 -3 -2 -0 1 3 4 4 4 4 4 5 5 5 4 4 4 4 4 5 5 5 6 6 6 7 7 9 10 11 12 12 13 13 14 15 15
-4 -4 -4 -4 -4 -4 -3 -2 -1 1 3 4 5 5 5 6 5 5 5 5 5 5 6 6 7 7 6 6 6 6 6 6 7 8 9 10 11 11 12 13 13 14 15
-4 -4 -4 -4 -3 -3 -2 -1 -0 2 4 5 6 6 7 7 7 6 5 5 6 7 8 9 9 8 8 7 7 7 7 7 7 7 8 9 9 10 11 12 12 13 14
-4 -4 -4 -4 -3 -2 -1 -0 1 3 5 6 7 7 8 8 8 7 7 7 7 8 9 9 9 9 8 8 8 8 8 8 8 8 8 9 9 10 10 10 11 12 13
-4 -4 -4 -3 -2 -1 -0 1 3 5 6 7 8 9 9 8 8 8 8 8 9 9 9 9 9 9 9 9 9 9 8 8 8 9 9 10 10 10 9 10 11 12 12
-5 -4 -4 -3 -2 -1 0 2 4 6 7 8 9 10 10 9 8 8 8 9 9 10 10 10 10 10 11 10 10 9 9 8 9 10 10 10 10 10 9 9 10 11 12
-4 -4 -3 -3 -2 -1 1 3 6 7 8 9 10 10 10 11 11 10 9 9 10 11 12 13 13 13 12 12 11 10 9 9 10 10 10 10 10 10 9 9 10 11 11
-4 -3 -3 -2 -2 -1 2 4 6 8 9 10 10 10 10 11 13 13 11 10 11 12 13 14 14 14 14 13 12 11 10 10 10 10 10 10 10 9 9 9 9 10 10